Weather History for Bennington, VT

Change the Weather History Date:

Tuesday, October 2, 2012

  Actual Average Record
Temperature  
Mean Temperature 57 °F 52 °F  
Max Temperature 62 °F 64 °F 79 °F (2002)
Min Temperature 51 °F 41 °F 33 °F (2003)
Degree Days  
Heating Degree Days 8 13  
Month to date heating degree days 17 25  
Since 1 July heating degree days 232 303  
Cooling Degree Days 0 0  
Month to date cooling degree days 0 0  
Year to date cooling degree days 474 311  
Growing Degree Days 6 (Base 50)    
Moisture  
Dew Point 54 °F    
Average Humidity 86    
Maximum Humidity 100    
Minimum Humidity 72    
Precipitation  
Precipitation 0.02 in 0.13 in 0.56 in (2002)
Month to date precipitation 0.06 0.26  
Year to date precipitation 24.67 31.37  
Sea Level Pressure  
Sea Level Pressure 30.02 in    
Wind  
Wind Speed 0 mph (SW)    
Max Wind Speed 9 mph    
Max Gust Speed 12 mph    
Visibility 8 miles    
Events Rain    
T = Trace of Precipitation, MM = Missing Value Source: NWS Daily Summary

Daily Weather History Graph

Daily Weather History Graph

Search for Another Location

Airport:

Trip Planner

Search our weather history database for the weather conditions in past years. The results will help you decide how hot, cold, wet, or windy it might be!

Date:

Astronomy

Oct. 02, 2012 Rise Set
Actual Time 6:51 AM EDT 6:31 PM EDT
Civil Twilight 6:23 AM EDT 6:59 PM EDT
Nautical Twilight 5:50 AM EDT 7:32 PM EDT
Astronomical Twilight 5:17 AM EDT 8:05 PM EDT
Moon 7:37 PM EDT (10/2) 9:21 AM EDT (10/2)
Length of Visible Light 12h 36m
Length of Day
11h 39m
Waning Gibbous, 94% of the Moon is Illuminated
Oct 2
Waning Gibbous
Oct 8
Last Quarter
Oct 15
New
Oct 21
First Quarter
Oct 29
Full

Hourly Weather History & Observations

Time (EDT) Temp. Dew Point Humidity Pressure Visibility Wind Dir Wind Speed Gust Speed Precip Events Conditions
12:54 AM 51.1 °F 50.0 °F 96% 29.96 in 10.0 mi Calm Calm - N/A   Clear
1:54 AM 53.1 °F 51.1 °F 93% 29.97 in 10.0 mi Calm Calm - N/A   Clear
3:54 AM 52.0 °F 50.0 °F 93% 29.99 in 10.0 mi Calm Calm - N/A   Mostly Cloudy
4:54 AM 52.0 °F 50.0 °F 93% 29.98 in 10.0 mi Calm Calm - N/A   Overcast
5:54 AM 52.0 °F 51.1 °F 97% 29.98 in 10.0 mi Calm Calm - N/A   Overcast
6:54 AM 53.1 °F 51.1 °F 93% 30.00 in 6.0 mi Calm Calm - N/A   Overcast
7:54 AM 54.0 °F 52.0 °F 93% 30.02 in 10.0 mi Calm Calm - N/A   Overcast
8:54 AM 57.0 °F 53.1 °F 87% 30.02 in 10.0 mi Calm Calm - N/A   Partly Cloudy
9:54 AM 60.1 °F 54.0 °F 80% 30.03 in 10.0 mi Calm Calm - N/A   Mostly Cloudy
10:54 AM 60.1 °F 55.0 °F 83% 30.03 in 10.0 mi Calm Calm - N/A   Overcast
11:54 AM 60.1 °F 55.9 °F 86% 30.04 in 10.0 mi Calm Calm - 0.00 in   Overcast
12:54 PM 61.0 °F 52.0 °F 72% 30.01 in 10.0 mi Calm Calm - 0.00 in   Overcast
1:54 PM 61.0 °F 53.1 °F 75% 30.03 in 10.0 mi SW 3.5 mph - 0.00 in   Overcast
2:54 PM 62.1 °F 54.0 °F 75% 30.02 in 10.0 mi West 3.5 mph - 0.00 in   Overcast
3:54 PM 62.1 °F 55.0 °F 78% 30.01 in 10.0 mi South 3.5 mph - N/A   Overcast
4:54 PM 62.1 °F 55.0 °F 78% 30.00 in 10.0 mi Calm Calm - N/A   Overcast
5:54 PM 62.1 °F 55.9 °F 80% 30.01 in 10.0 mi Calm Calm - N/A   Overcast
6:54 PM 61.0 °F 55.9 °F 83% 30.01 in 10.0 mi Calm Calm - N/A   Overcast
8:45 PM 60.8 °F 57.2 °F 88% 30.02 in 9.0 mi Calm Calm - N/A   Overcast
9:12 PM 60.8 °F 57.2 °F 88% 30.04 in 9.0 mi Calm Calm - N/A   Overcast
9:25 PM 60.8 °F 57.2 °F 88% 30.04 in 6.0 mi Calm Calm - N/A   Overcast
9:54 PM 59.0 °F 57.9 °F 96% 30.04 in 6.0 mi Calm Calm - N/A   Overcast
10:54 PM 60.1 °F 57.9 °F 93% 30.04 in 5.0 mi Calm Calm - N/A   Overcast
11:04 PM 60.8 °F 57.2 °F 88% 30.05 in 5.0 mi Calm Calm - N/A   Overcast
11:42 PM 59.0 °F 57.2 °F 94% 30.04 in 2.0 mi Calm Calm - 0.00 in Rain Light Rain
11:52 PM 59.0 °F 57.2 °F 94% 30.04 in 1.5 mi Calm Calm - 0.01 in Rain Light Rain
11:54 PM 59.0 °F 57.9 °F 96% 30.04 in 1.5 mi Calm Calm - 0.01 in Rain Light Rain